SVA1050 OEJN-OERK

Flight info

Callsign SVA1050
Flight time 1h 7m
Altitude 37000
Route EGREP T532 ORDEM
Aircraft B772/H-SDE2E3FGHIJ5LORVWXY/LB1D1

Departure

Time 2026-04-28 19:55
Airport King Abdulaziz International Airport (OEJN)

Arrival

Time 2026-04-28 21:03
Airport King Khalid International Airport (OERK)
Time Latitude Longitude Altitude Speed Heading
2026-04-28 19:42 21.66470 39.17333 35 ft 0 kts 225°
2026-04-28 19:48 21.66476 39.17339 34 ft 3 kts 225°
2026-04-28 19:48 21.66491 39.17354 31 ft 3 kts 225°
2026-04-28 19:48 21.66505 39.17369 32 ft 3 kts 225°
2026-04-28 19:48 21.66518 39.17383 32 ft 3 kts 218°
2026-04-28 19:49 21.66534 39.17393 31 ft 3 kts 187°
2026-04-28 19:49 21.66553 39.17392 33 ft 3 kts 160°
2026-04-28 19:49 21.66572 39.17383 32 ft 3 kts 150°
2026-04-28 19:49 21.66585 39.17375 32 ft 0 kts 152°
2026-04-28 19:52 21.66565 39.17387 32 ft 12 kts 148°
2026-04-28 19:53 21.66500 39.17460 35 ft 14 kts 123°
2026-04-28 19:53 21.66501 39.17558 35 ft 14 kts 71°
2026-04-28 19:53 21.66534 39.17654 35 ft 14 kts 70°
2026-04-28 19:53 21.66567 39.17748 35 ft 16 kts 69°
2026-04-28 19:54 21.66606 39.17862 36 ft 10 kts 70°
2026-04-28 19:54 21.66631 39.17935 36 ft 11 kts 69°
2026-04-28 19:54 21.66675 39.18027 37 ft 14 kts 31°
2026-04-28 19:54 21.66766 39.18005 37 ft 16 kts 342°
2026-04-28 19:55 21.66929 39.17939 39 ft 50 kts 339°
2026-04-28 19:55 21.67540 39.17698 37 ft 133 kts 340°
2026-04-28 19:55 21.68541 39.17306 392 ft 168 kts 341°
2026-04-28 19:55 21.69615 39.16894 1679 ft 154 kts 341°
2026-04-28 19:56 21.70620 39.16477 2562 ft 162 kts 345°
2026-04-28 19:56 21.71848 39.16278 2946 ft 196 kts 349°
2026-04-28 19:56 21.73261 39.16036 3449 ft 211 kts 349°
2026-04-28 19:56 21.74838 39.16108 3685 ft 247 kts 14°
2026-04-28 19:57 21.76442 39.16998 4098 ft 270 kts 33°
2026-04-28 19:57 21.78000 39.18213 4767 ft 281 kts 34°
2026-04-28 19:57 21.79599 39.19465 5484 ft 283 kts 34°
2026-04-28 19:57 21.81190 39.20710 6096 ft 288 kts 35°
2026-04-28 19:58 21.82817 39.21978 6763 ft 295 kts 35°
2026-04-28 19:58 21.84492 39.23279 7521 ft 298 kts 35°
2026-04-28 19:58 21.86183 39.24590 8305 ft 301 kts 35°
2026-04-28 19:58 21.87900 39.25918 9015 ft 306 kts 35°
2026-04-28 19:59 21.89640 39.27262 9724 ft 310 kts 35°
2026-04-28 19:59 21.91405 39.28624 10332 ft 317 kts 35°
2026-04-28 19:59 21.93261 39.30056 10532 ft 340 kts 35°
2026-04-28 19:59 21.95289 39.31539 10738 ft 364 kts 31°
2026-04-28 20:00 21.97525 39.33025 10936 ft 389 kts 30°
2026-04-28 20:00 21.99885 39.34553 11604 ft 401 kts 30°
2026-04-28 20:00 22.02294 39.36114 12480 ft 407 kts 30°
2026-04-28 20:00 22.04724 39.37702 13445 ft 410 kts 30°
2026-04-28 20:01 22.07171 39.39312 14254 ft 415 kts 30°
2026-04-28 20:01 22.09653 39.40952 14978 ft 421 kts 30°
2026-04-28 20:01 22.12135 39.42597 15674 ft 427 kts 30°
2026-04-28 20:01 22.14682 39.44287 16392 ft 433 kts 30°
2026-04-28 20:02 22.17259 39.45999 17098 ft 438 kts 30°
2026-04-28 20:02 22.19869 39.47731 17784 ft 443 kts 30°
2026-04-28 20:02 22.22511 39.49485 18422 ft 449 kts 30°
2026-04-28 20:02 22.25186 39.51260 18963 ft 454 kts 30°
2026-04-28 20:03 22.27893 39.53057 19492 ft 460 kts 29°
2026-04-28 20:03 22.30619 39.54886 20026 ft 459 kts 32°
2026-04-28 20:03 22.33057 39.57189 20326 ft 473 kts 50°
2026-04-28 20:03 22.34761 39.60228 20685 ft 474 kts 63°
2026-04-28 20:04 22.36274 39.63443 21041 ft 483 kts 63°
2026-04-28 20:04 22.37858 39.66667 21575 ft 487 kts 62°
2026-04-28 20:04 22.39473 39.69854 22066 ft 492 kts 61°
2026-04-28 20:04 22.41147 39.73106 22520 ft 498 kts 60°
2026-04-28 20:05 22.42843 39.76384 23047 ft 502 kts 61°
2026-04-28 20:05 22.44552 39.79700 23515 ft 507 kts 61°
2026-04-28 20:05 22.46308 39.83012 23887 ft 509 kts 56°
2026-04-28 20:05 22.48581 39.85919 24230 ft 505 kts 40°
2026-04-28 20:06 22.51248 39.88418 24451 ft 511 kts 37°
2026-04-28 20:06 22.53983 39.90896 24796 ft 514 kts 37°
2026-04-28 20:06 22.56727 39.93383 25295 ft 514 kts 37°
2026-04-28 20:06 22.59458 39.95891 25749 ft 516 kts 37°
2026-04-28 20:07 22.62189 39.98445 26124 ft 520 kts 38°
2026-04-28 20:07 22.63994 40.00155 26355 ft 523 kts 38°
2026-04-28 20:07 22.67660 40.03659 26829 ft 527 kts 38°
2026-04-28 20:07 22.70409 40.06300 27261 ft 529 kts 38°
2026-04-28 20:08 22.73167 40.08953 27626 ft 532 kts 38°
2026-04-28 20:08 22.75945 40.11622 27943 ft 535 kts 37°
2026-04-28 20:08 22.78704 40.14271 28240 ft 539 kts 37°
2026-04-28 20:08 22.81517 40.16970 28561 ft 541 kts 37°
2026-04-28 20:09 22.84344 40.19683 28871 ft 543 kts 37°
2026-04-28 20:09 22.87189 40.22416 29193 ft 545 kts 37°
2026-04-28 20:09 22.90040 40.25154 29501 ft 548 kts 37°
2026-04-28 20:09 22.92906 40.27909 29651 ft 552 kts 37°
2026-04-28 20:10 22.95788 40.30681 29875 ft 554 kts 37°
2026-04-28 20:10 22.98641 40.33428 30113 ft 556 kts 37°
2026-04-28 20:10 23.01536 40.36218 30324 ft 557 kts 37°
2026-04-28 20:10 23.04435 40.39013 30532 ft 558 kts 37°
2026-04-28 20:11 23.07342 40.41818 30733 ft 560 kts 37°
2026-04-28 20:11 23.10257 40.44631 30931 ft 561 kts 37°
2026-04-28 20:11 23.13178 40.47452 31079 ft 564 kts 37°
2026-04-28 20:11 23.16110 40.50285 31305 ft 563 kts 37°
2026-04-28 20:12 23.19027 40.53107 31671 ft 560 kts 37°
2026-04-28 20:12 23.21934 40.55919 32048 ft 558 kts 37°
2026-04-28 20:12 23.24720 40.58870 32328 ft 562 kts 44°
2026-04-28 20:12 23.26365 40.61049 32514 ft 566 kts 50°
2026-04-28 20:13 23.29223 40.65893 32884 ft 572 kts 59°
2026-04-28 20:13 23.30887 40.69828 33178 ft 574 kts 68°
2026-04-28 20:13 23.32270 40.73899 33561 ft 572 kts 69°
2026-04-28 20:13 23.33619 40.77979 33982 ft 571 kts 69°
2026-04-28 20:14 23.34944 40.81980 34364 ft 568 kts 69°
2026-04-28 20:14 23.36315 40.86063 34786 ft 565 kts 69°
2026-04-28 20:14 23.37680 40.90064 35219 ft 562 kts 68°
2026-04-28 20:14 23.39032 40.93984 35659 ft 559 kts 68°
2026-04-28 20:15 23.40403 40.97936 36137 ft 555 kts 68°
2026-04-28 20:15 23.41768 41.01867 36493 ft 555 kts 68°
2026-04-28 20:15 23.43130 41.05794 36832 ft 555 kts 68°
2026-04-28 20:15 23.44496 41.09741 36977 ft 559 kts 69°
2026-04-28 20:16 23.45867 41.13712 36997 ft 561 kts 69°
2026-04-28 20:16 23.48586 41.21613 36991 ft 552 kts 69°
2026-04-28 20:17 23.51274 41.29440 37007 ft 552 kts 69°
2026-04-28 20:17 23.53963 41.37278 37007 ft 552 kts 69°
2026-04-28 20:18 23.56650 41.45128 36995 ft 553 kts 69°
2026-04-28 20:18 23.59340 41.53001 36997 ft 554 kts 69°
2026-04-28 20:19 23.62027 41.60881 36989 ft 554 kts 69°
2026-04-28 20:19 23.64710 41.68762 36993 ft 554 kts 69°
2026-04-28 20:20 23.67394 41.76667 36991 ft 555 kts 69°
2026-04-28 20:20 23.69922 41.84585 36985 ft 555 kts 71°
2026-04-28 20:21 23.72403 41.92568 36985 ft 555 kts 70°
2026-04-28 20:21 23.74491 41.99194 36978 ft 555 kts 70°
2026-04-28 20:22 23.77136 42.07112 36993 ft 555 kts 69°
2026-04-28 20:22 23.79872 42.14992 36975 ft 555 kts 68°
2026-04-28 20:23 23.82587 42.22875 36981 ft 554 kts 69°
2026-04-28 20:23 23.85269 42.30756 36984 ft 553 kts 69°
2026-04-28 20:24 23.87941 42.38644 36983 ft 553 kts 69°
2026-04-28 20:24 23.90607 42.46526 36983 ft 553 kts 69°
2026-04-28 20:25 23.93271 42.54405 36988 ft 553 kts 69°
2026-04-28 20:25 23.95915 42.62244 36971 ft 553 kts 69°
2026-04-28 20:26 23.98572 42.70136 36977 ft 552 kts 69°
2026-04-28 20:26 24.01220 42.78019 36990 ft 553 kts 69°
2026-04-28 20:27 24.03870 42.85919 36970 ft 553 kts 69°
2026-04-28 20:27 24.06509 42.93833 36974 ft 554 kts 69°
2026-04-28 20:28 24.09127 43.01779 36976 ft 554 kts 69°
2026-04-28 20:28 24.11739 43.09734 36978 ft 555 kts 69°
2026-04-28 20:29 24.14351 43.17693 36977 ft 557 kts 69°
2026-04-28 20:29 24.16952 43.25625 36965 ft 558 kts 69°
2026-04-28 20:30 24.19568 43.33621 36969 ft 558 kts 69°
2026-04-28 20:30 24.22185 43.41634 36966 ft 559 kts 69°
2026-04-28 20:31 24.24802 43.49668 36961 ft 559 kts 69°
2026-04-28 20:31 24.27414 43.57696 36961 ft 560 kts 69°
2026-04-28 20:32 24.30025 43.65742 36960 ft 560 kts 69°
2026-04-28 20:32 24.32631 43.73790 36956 ft 560 kts 69°
2026-04-28 20:33 24.35231 43.81833 36963 ft 559 kts 69°
2026-04-28 20:33 24.36878 43.86937 36959 ft 559 kts 70°
2026-04-28 20:34 24.36888 43.86969 36962 ft 559 kts 70°
2026-04-28 20:35 24.39426 43.94849 36955 ft 559 kts 70°
2026-04-28 20:35 24.42012 44.02893 36952 ft 559 kts 70°
2026-04-28 20:36 24.44541 44.10867 36532 ft 545 kts 72°
2026-04-28 20:36 24.45545 44.14886 35617 ft 550 kts 78°
2026-04-28 20:36 24.46278 44.19044 34510 ft 559 kts 80°
2026-04-28 20:36 24.46962 44.23293 33272 ft 568 kts 80°
2026-04-28 20:37 24.47646 44.27576 32084 ft 570 kts 80°
2026-04-28 20:37 24.48353 44.31883 30851 ft 575 kts 80°
2026-04-28 20:37 24.49090 44.36228 29714 ft 588 kts 80°
2026-04-28 20:37 24.49862 44.40699 29299 ft 600 kts 80°
2026-04-28 20:38 24.50630 44.45134 29191 ft 592 kts 80°
2026-04-28 20:38 24.51382 44.49495 28556 ft 574 kts 80°
2026-04-28 20:38 24.52114 44.53769 27789 ft 563 kts 80°
2026-04-28 20:38 24.52835 44.57952 27109 ft 552 kts 80°
2026-04-28 20:39 24.53543 44.62051 26592 ft 539 kts 81°
2026-04-28 20:39 24.54233 44.66046 26112 ft 526 kts 81°
2026-04-28 20:39 24.54907 44.69955 25636 ft 515 kts 81°
2026-04-28 20:39 24.55565 44.73783 25166 ft 505 kts 81°
2026-04-28 20:40 24.56207 44.77535 24712 ft 495 kts 81°
2026-04-28 20:40 24.56837 44.81221 24261 ft 487 kts 82°
2026-04-28 20:40 24.57456 44.84849 23816 ft 479 kts 82°
2026-04-28 20:40 24.58063 44.88417 23347 ft 472 kts 82°
2026-04-28 20:41 24.58661 44.91930 22822 ft 465 kts 82°
2026-04-28 20:41 24.59252 44.95405 22325 ft 459 kts 82°
2026-04-28 20:41 24.59832 44.98829 21806 ft 453 kts 82°
2026-04-28 20:41 24.60403 45.02212 21293 ft 448 kts 82°
2026-04-28 20:42 24.60966 45.05553 20803 ft 442 kts 82°
2026-04-28 20:42 24.61522 45.08860 20317 ft 437 kts 82°
2026-04-28 20:42 24.62071 45.12132 19842 ft 433 kts 82°
2026-04-28 20:42 24.62608 45.15335 19428 ft 437 kts 82°
2026-04-28 20:43 24.63178 45.18762 19116 ft 458 kts 82°
2026-04-28 20:43 24.63752 45.22214 18771 ft 459 kts 82°
2026-04-28 20:43 24.64319 45.25606 18438 ft 457 kts 82°
2026-04-28 20:43 24.64892 45.29032 18082 ft 454 kts 82°
2026-04-28 20:44 24.65460 45.32437 17715 ft 451 kts 82°
2026-04-28 20:44 24.66022 45.35805 17456 ft 446 kts 82°
2026-04-28 20:44 24.66578 45.39151 17195 ft 442 kts 82°
2026-04-28 20:44 24.67128 45.42470 16943 ft 439 kts 82°
2026-04-28 20:45 24.67673 45.45764 16685 ft 437 kts 82°
2026-04-28 20:45 24.68217 45.49059 16444 ft 437 kts 82°
2026-04-28 20:45 24.68759 45.52342 16193 ft 436 kts 82°
2026-04-28 20:45 24.69300 45.55625 15957 ft 436 kts 82°
2026-04-28 20:46 24.69841 45.58910 15707 ft 436 kts 82°
2026-04-28 20:46 24.70380 45.62188 15474 ft 435 kts 82°
2026-04-28 20:46 24.70918 45.65468 15235 ft 434 kts 82°
2026-04-28 20:46 24.71491 45.68722 14992 ft 433 kts 79°
2026-04-28 20:47 24.72196 45.71895 14765 ft 432 kts 78°
2026-04-28 20:47 24.72938 45.75094 14529 ft 431 kts 77°
2026-04-28 20:47 24.73678 45.78275 14304 ft 425 kts 78°
2026-04-28 20:47 24.74392 45.81379 14171 ft 413 kts 78°
2026-04-28 20:48 24.75082 45.84408 13874 ft 407 kts 78°
2026-04-28 20:48 24.75761 45.87415 13332 ft 404 kts 78°
2026-04-28 20:48 24.76434 45.90400 12895 ft 398 kts 78°
2026-04-28 20:48 24.77093 45.93313 12647 ft 387 kts 78°
2026-04-28 20:49 24.77735 45.96152 12408 ft 378 kts 78°
2026-04-28 20:49 24.78367 45.98951 12179 ft 375 kts 78°
2026-04-28 20:49 24.78992 46.01728 11952 ft 374 kts 78°
2026-04-28 20:49 24.79615 46.04502 11728 ft 373 kts 78°
2026-04-28 20:50 24.80238 46.07271 11501 ft 372 kts 78°
2026-04-28 20:50 24.80860 46.10031 11266 ft 371 kts 78°
2026-04-28 20:50 24.81478 46.12788 11041 ft 370 kts 78°
2026-04-28 20:50 24.82092 46.15524 10816 ft 364 kts 77°
2026-04-28 20:51 24.82873 46.18134 10562 ft 355 kts 66°
2026-04-28 20:51 24.84123 46.20440 10362 ft 346 kts 56°
2026-04-28 20:51 24.85425 46.22590 10151 ft 338 kts 57°
2026-04-28 20:51 24.86274 46.24054 10007 ft 333 kts 58°
2026-04-28 20:52 24.87853 46.26821 9795 ft 312 kts 58°
2026-04-28 20:52 24.89133 46.28689 9524 ft 303 kts 40°
2026-04-28 20:52 24.90823 46.29978 9370 ft 289 kts 30°
2026-04-28 20:52 24.92505 46.31143 9177 ft 283 kts 31°
2026-04-28 20:53 24.95742 46.33433 8798 ft 270 kts 31°
2026-04-28 20:53 24.97302 46.34546 8633 ft 263 kts 32°
2026-04-28 20:53 24.98819 46.35633 8473 ft 257 kts 32°
2026-04-28 20:54 25.00296 46.36694 8308 ft 250 kts 32°
2026-04-28 20:54 25.01717 46.37716 8159 ft 245 kts 32°
2026-04-28 20:54 25.03152 46.38749 8014 ft 243 kts 32°
2026-04-28 20:54 25.04563 46.39765 7868 ft 242 kts 32°
2026-04-28 20:55 25.05949 46.40764 7730 ft 241 kts 32°
2026-04-28 20:55 25.07351 46.41775 7569 ft 240 kts 32°
2026-04-28 20:55 25.08739 46.42777 7484 ft 237 kts 32°
2026-04-28 20:55 25.10121 46.43783 7253 ft 238 kts 36°
2026-04-28 20:56 25.11216 46.45125 7010 ft 237 kts 58°
2026-04-28 20:56 25.12031 46.46714 6791 ft 238 kts 62°
2026-04-28 20:56 25.12811 46.48314 6551 ft 236 kts 62°
2026-04-28 20:56 25.13604 46.49907 6237 ft 238 kts 61°
2026-04-28 20:57 25.14408 46.51494 5997 ft 233 kts 60°
2026-04-28 20:57 25.15200 46.53042 6001 ft 231 kts 60°
2026-04-28 20:57 25.15984 46.54570 5990 ft 225 kts 60°
2026-04-28 20:57 25.16532 46.56113 5974 ft 211 kts 87°
2026-04-28 20:58 25.16209 46.57633 5934 ft 205 kts 123°
2026-04-28 20:58 25.15182 46.58719 5697 ft 205 kts 143°
2026-04-28 20:58 25.14036 46.59670 5448 ft 206 kts 144°
2026-04-28 20:58 25.12864 46.60525 5242 ft 201 kts 148°
2026-04-28 20:59 25.11688 46.61297 5081 ft 197 kts 149°
2026-04-28 20:59 25.10488 46.62064 4829 ft 200 kts 149°
2026-04-28 20:59 25.09288 46.62828 4580 ft 199 kts 149°
2026-04-28 20:59 25.08087 46.63591 4324 ft 200 kts 149°
2026-04-28 21:00 25.06883 46.64358 4078 ft 199 kts 148°
2026-04-28 21:00 25.05684 46.65121 3807 ft 199 kts 148°
2026-04-28 21:00 25.04485 46.65882 3570 ft 198 kts 148°
2026-04-28 21:00 25.03294 46.66640 3319 ft 196 kts 147°
2026-04-28 21:01 25.02159 46.67360 3096 ft 180 kts 147°
2026-04-28 21:01 25.01123 46.68020 2861 ft 163 kts 148°
2026-04-28 21:01 25.00194 46.68612 2642 ft 149 kts 149°
2026-04-28 21:01 24.99310 46.69174 2463 ft 146 kts 150°
2026-04-28 21:02 24.98421 46.69745 2263 ft 149 kts 151°
2026-04-28 21:02 24.97519 46.70307 2059 ft 149 kts 151°
2026-04-28 21:02 24.96705 46.70821 2044 ft 121 kts 150°
2026-04-28 21:02 24.96112 46.71196 2043 ft 76 kts 150°
2026-04-28 21:03 24.95700 46.71424 2043 ft 41 kts 171°
2026-04-28 21:03 24.95523 46.71398 2040 ft 10 kts 209°
2026-04-28 21:03 24.95481 46.71359 2043 ft 7 kts 230°
2026-04-28 21:03 24.95442 46.71290 2043 ft 11 kts 238°
2026-04-28 21:04 24.95402 46.71216 2045 ft 11 kts 239°
2026-04-28 21:04 24.95364 46.71140 2043 ft 11 kts 240°
2026-04-28 21:04 24.95329 46.71064 2042 ft 11 kts 258°
2026-04-28 21:04 24.95377 46.71002 2045 ft 11 kts 329°
2026-04-28 21:05 24.95446 46.70958 2042 ft 11 kts 330°
2026-04-28 21:05 24.95515 46.70914 2043 ft 11 kts 330°
2026-04-28 21:05 24.95584 46.70871 2044 ft 11 kts 330°
2026-04-28 21:05 24.95653 46.70828 2043 ft 11 kts 329°
2026-04-28 21:06 24.95760 46.70758 2042 ft 23 kts 329°
2026-04-28 21:06 24.95812 46.70692 2044 ft 10 kts 268°
2026-04-28 21:06 24.95792 46.70621 2038 ft 10 kts 268°
2026-04-28 21:06 24.95812 46.70577 2042 ft 10 kts 304°
2026-04-28 21:07 24.95835 46.70538 2043 ft 0 kts 303°